TimeEST,TemperatureF,Dew PointF,Humidity,Sea Level PressureIn,VisibilityMPH,Wind Direction,Wind SpeedMPH,Gust SpeedMPH,PrecipitationIn,Events,Conditions,WindDirDegrees,DateUTC
12:16 AM,35.6,24.8,65,30.14,10.0,WNW,11.5,-,N/A,,Overcast,300,2013-11-19 05:16:00
12:36 AM,35.6,23.0,60,30.13,10.0,WNW,11.5,-,N/A,,Overcast,300,2013-11-19 05:36:00
12:56 AM,35.6,23.0,60,30.14,10.0,NW,10.4,17.3,N/A,,Overcast,310,2013-11-19 05:56:00
1:16 AM,35.6,23.0,60,30.14,10.0,NW,9.2,18.4,N/A,,Overcast,310,2013-11-19 06:16:00
1:36 AM,35.6,23.0,60,30.14,10.0,WNW,11.5,-,N/A,,Overcast,300,2013-11-19 06:36:00
1:56 AM,35.6,23.0,60,30.15,10.0,WNW,12.7,18.4,N/A,,Overcast,300,2013-11-19 06:56:00
2:16 AM,35.6,23.0,60,30.16,10.0,NW,11.5,20.7,N/A,,Overcast,320,2013-11-19 07:16:00
2:36 AM,35.6,23.0,60,30.17,10.0,NW,8.1,-,N/A,,Overcast,310,2013-11-19 07:36:00
2:56 AM,35.6,23.0,60,30.17,10.0,NW,10.4,16.1,N/A,,Overcast,310,2013-11-19 07:56:00
3:16 AM,35.6,23.0,60,30.17,10.0,NW,8.1,-,N/A,,Overcast,310,2013-11-19 08:16:00
3:37 AM,35.6,23.0,60,30.18,10.0,NW,9.2,-,N/A,,Overcast,320,2013-11-19 08:37:00
3:52 AM,35.6,24.8,65,30.18,10.0,NW,5.8,-,N/A,,Overcast,320,2013-11-19 08:52:00
4:12 AM,35.6,23.0,60,30.19,10.0,NW,12.7,-,N/A,,Overcast,320,2013-11-19 09:12:00
4:32 AM,35.6,23.0,60,30.20,10.0,NW,9.2,-,N/A,,Overcast,310,2013-11-19 09:32:00
4:52 AM,35.6,24.8,65,30.20,10.0,NW,5.8,-,N/A,,Overcast,320,2013-11-19 09:52:00
5:12 AM,35.6,24.8,65,30.21,10.0,NW,8.1,-,N/A,,Overcast,320,2013-11-19 10:12:00
5:32 AM,35.6,23.0,60,30.22,10.0,NW,11.5,-,N/A,,Overcast,310,2013-11-19 10:32:00
5:52 AM,35.6,23.0,60,30.23,10.0,NW,8.1,-,N/A,,Overcast,310,2013-11-19 10:52:00
6:12 AM,35.6,23.0,60,30.24,10.0,NNW,8.1,-,N/A,,Overcast,330,2013-11-19 11:12:00
6:33 AM,35.6,23.0,60,30.25,10.0,NW,9.2,-,N/A,,Overcast,310,2013-11-19 11:33:00
6:53 AM,35.6,21.2,56,30.26,10.0,NW,9.2,-,N/A,,Overcast,320,2013-11-19 11:53:00
7:13 AM,35.6,21.2,56,30.27,10.0,NW,8.1,-,N/A,,Overcast,320,2013-11-19 12:13:00
7:33 AM,35.6,21.2,56,30.28,10.0,NW,9.2,-,N/A,,Overcast,320,2013-11-19 12:33:00
7:53 AM,35.6,21.2,56,30.28,10.0,NNW,6.9,-,N/A,,Overcast,330,2013-11-19 12:53:00
8:13 AM,35.6,21.2,56,30.29,10.0,NW,8.1,-,N/A,,Overcast,310,2013-11-19 13:13:00
8:33 AM,35.6,23.0,60,30.30,10.0,NW,6.9,-,N/A,,Overcast,310,2013-11-19 13:33:00
8:53 AM,35.6,23.0,60,30.30,10.0,NNW,4.6,-,N/A,,Overcast,330,2013-11-19 13:53:00
9:13 AM,35.6,23.0,60,30.31,10.0,North,9.2,-,N/A,,Overcast,360,2013-11-19 14:13:00
9:33 AM,35.6,19.4,52,30.32,10.0,NNW,13.8,17.3,N/A,,Overcast,340,2013-11-19 14:33:00
9:53 AM,35.6,21.2,56,30.32,10.0,North,6.9,-,N/A,,Scattered Clouds,350,2013-11-19 14:53:00
10:13 AM,35.6,21.2,56,30.32,10.0,NNW,8.1,-,N/A,,Clear,340,2013-11-19 15:13:00
10:34 AM,37.4,21.2,52,30.33,10.0,NW,6.9,-,N/A,,Clear,320,2013-11-19 15:34:00
10:54 AM,37.4,21.2,52,30.34,10.0,NNW,5.8,-,N/A,,Clear,340,2013-11-19 15:54:00
11:14 AM,37.4,21.2,52,30.33,10.0,North,5.8,-,N/A,,Clear,350,2013-11-19 16:14:00
11:34 AM,37.4,21.2,52,30.33,10.0,NNW,4.6,-,N/A,,Clear,330,2013-11-19 16:34:00
11:54 AM,39.2,21.2,49,30.32,10.0,NNW,8.1,-,N/A,,Clear,330,2013-11-19 16:54:00
12:14 PM,37.4,19.4,48,30.32,10.0,Calm,Calm,-,N/A,,Clear,0,2013-11-19 17:14:00
12:34 PM,39.2,21.2,49,30.33,10.0,NE,4.6,-,N/A,,Clear,40,2013-11-19 17:34:00
12:54 PM,39.2,21.2,49,30.32,10.0,NNE,5.8,-,N/A,,Clear,20,2013-11-19 17:54:00
1:15 PM,39.2,19.4,45,30.32,10.0,NNE,4.6,-,N/A,,Clear,30,2013-11-19 18:15:00
1:35 PM,41.0,21.2,45,30.32,10.0,North,5.8,-,N/A,,Clear,10,2013-11-19 18:35:00
1:55 PM,41.0,21.2,45,30.31,10.0,NW,6.9,-,N/A,,Clear,320,2013-11-19 18:55:00
2:15 PM,39.2,19.4,45,30.31,10.0,ENE,3.5,-,N/A,,Clear,60,2013-11-19 19:15:00
2:35 PM,39.2,19.4,45,30.31,10.0,Calm,Calm,-,N/A,,Clear,0,2013-11-19 19:35:00
2:55 PM,41.0,19.4,42,30.31,10.0,ENE,4.6,-,N/A,,Clear,70,2013-11-19 19:55:00
3:15 PM,41.0,23.0,49,30.32,10.0,SSE,4.6,-,N/A,,Clear,160,2013-11-19 20:15:00
3:35 PM,39.2,21.2,49,30.32,10.0,ESE,3.5,-,N/A,,Clear,120,2013-11-19 20:35:00
3:55 PM,39.2,23.0,52,30.33,10.0,SSE,5.8,-,N/A,,Clear,160,2013-11-19 20:55:00
4:15 PM,37.4,21.2,52,30.33,10.0,SSE,5.8,-,N/A,,Clear,150,2013-11-19 21:15:00
4:35 PM,37.4,23.0,56,30.34,10.0,SSE,5.8,-,N/A,,Clear,150,2013-11-19 21:35:00
4:55 PM,35.6,23.0,60,30.34,10.0,SSE,5.8,-,N/A,,Clear,150,2013-11-19 21:55:00
5:16 PM,35.6,23.0,60,30.34,10.0,SSE,3.5,-,N/A,,Clear,150,2013-11-19 22:16:00
5:36 PM,33.8,23.0,65,30.35,10.0,Calm,Calm,-,N/A,,Clear,0,2013-11-19 22:36:00
5:56 PM,33.8,23.0,65,30.36,10.0,SSE,3.5,-,N/A,,Clear,160,2013-11-19 22:56:00
6:16 PM,33.8,24.8,70,30.37,10.0,Calm,Calm,-,N/A,,Clear,0,2013-11-19 23:16:00
6:36 PM,32.0,24.8,75,30.37,10.0,Calm,Calm,-,N/A,,Clear,0,2013-11-19 23:36:00
6:56 PM,33.8,24.8,70,30.37,10.0,Calm,Calm,-,N/A,,Clear,0,2013-11-19 23:56:00
7:16 PM,32.0,24.8,75,30.37,10.0,Calm,Calm,-,N/A,,Clear,0,2013-11-20 00:16:00
7:36 PM,32.0,24.8,75,30.38,10.0,Calm,Calm,-,N/A,,Clear,0,2013-11-20 00:36:00
7:57 PM,30.2,24.8,80,30.38,10.0,Calm,Calm,-,N/A,,Clear,0,2013-11-20 00:57:00
8:12 PM,30.2,24.8,80,30.38,10.0,ESE,3.5,-,N/A,,Clear,120,2013-11-20 01:12:00
8:32 PM,30.2,24.8,80,30.38,10.0,Calm,Calm,-,N/A,,Clear,0,2013-11-20 01:32:00
8:52 PM,28.4,24.8,86,30.38,10.0,Calm,Calm,-,N/A,,Clear,0,2013-11-20 01:52:00
9:12 PM,28.4,24.8,86,30.38,10.0,Calm,Calm,-,N/A,,Clear,0,2013-11-20 02:12:00
9:32 PM,30.2,24.8,80,30.38,10.0,Calm,Calm,-,N/A,,Clear,0,2013-11-20 02:32:00
9:52 PM,26.6,24.8,93,30.39,10.0,Calm,Calm,-,N/A,,Clear,0,2013-11-20 02:52:00
10:12 PM,28.4,24.8,86,30.38,10.0,Calm,Calm,-,N/A,,Clear,0,2013-11-20 03:12:00
10:32 PM,28.4,24.8,86,30.38,10.0,ESE,3.5,-,N/A,,Clear,110,2013-11-20 03:32:00
10:52 PM,28.4,24.8,86,30.37,10.0,Calm,Calm,-,N/A,,Clear,0,2013-11-20 03:52:00
11:13 PM,26.6,24.8,93,30.37,10.0,Calm,Calm,-,N/A,,Clear,0,2013-11-20 04:13:00
11:33 PM,26.6,24.8,93,30.38,10.0,Calm,Calm,-,N/A,,Clear,0,2013-11-20 04:33:00
11:53 PM,26.6,24.8,93,30.38,7.0,Calm,Calm,-,N/A,,Clear,0,2013-11-20 04:53:00